Flag for China Weather past 2 weeks in Guilin, Guangxi, China

Now
43 °F

More clouds than sun.


Feels Like: 43 °F
Forecast: 45 / 53 °F
Wind: 1 mph from North

Location: Guilin Airport

Current Time: Mar 6, 2015 at 8:42:38 AM

Latest Report: Mar 6, 2015 at 8:00 AM


Visibility: N/A

Pressure: 30.21 "Hg

Humidity: 87%

Dew point: 39 °F

Location of GuilinLocation

Historic Weather in Guilin — Graph

°F

Guilin temperature yesterday

Maximum temperature yesterday: 46 °F (at 12:00 AM)
Minimum temperature yesterday: 45 °F (at 6:00 AM)
Average temperature yesterday: 46 °F

Past Weeks' High & Low Weather Summary

 TemperatureHumidityPressure
High73 °F (Feb 20, 4:00 PM)100% (Mar 2, 4:00 PM)30.39 "Hg (Mar 2, 4:00 PM)
Low43 °F (Mar 1, 5:00 AM)44% (Mar 1, 2:00 PM)29.80 "Hg (Feb 25, 3:00 PM)
Average54 °F82%30.01 "Hg
* Reported Feb 19 7:00 AM — Mar 6 7:00 AM, Guilin, Weather by CustomWeather, © 2015

Note: Actual official high and low records may vary slightly from our data, if they occured in-between our weather recording intervals... More about our weather records

Advertising

Guilin weather history for previous 24 hours

 ConditionsComfort  
Time TempWeatherWind HumidityBarometerVisibility
7:00 AM
Fri, Mar 6
43 °FOvercast.1 mph87%30.18 "Hg5 mi
6:00 AM43 °FOvercast.3 mph87%30.15 "Hg5 mi
5:00 AM43 °FOvercast.3 mph87%30.12 "Hg5 mi
4:00 AM43 °FLight rain. Overcast.3 mph93%30.12 "HgN/A
3:00 AM43 °FLight rain. Low clouds.6 mph93%30.15 "Hg5 mi
2:00 AM43 °FLight rain. Low clouds.6 mph93%30.15 "Hg4 mi
1:00 AM43 °FLight rain. Low clouds.6 mph93%30.15 "Hg4 mi
12:00 AM45 °FLight rain. Mostly cloudy.3 mph93%30.15 "Hg4 mi
11:00 PM
Thu, Mar 5
45 °FDrizzle. Mostly cloudy.6 mph93%30.15 "Hg5 mi
10:00 PM45 °FDrizzle. Mostly cloudy.8 mph93%30.15 "Hg6 mi
9:00 PM45 °FMostly cloudy.6 mph87%30.12 "Hg5 mi
8:00 PM45 °FMostly cloudy.3 mph93%30.09 "HgN/A
7:00 PM45 °FLight rain. Mostly cloudy.3 mph93%30.09 "Hg5 mi
6:00 PM45 °FMore clouds than sun.8 mph93%30.07 "Hg5 mi
5:00 PM45 °FLight rain. More clouds than sun.8 mph93%30.07 "Hg4 mi
4:00 PM45 °FLight rain. Fog.8 mph93%30.07 "Hg3 mi
3:00 PM46 °FLight rain. Fog.8 mph93%30.07 "Hg3 mi
2:00 PM46 °FLight rain. Fog.8 mph93%30.09 "Hg2 mi
1:00 PM46 °FLight rain. Fog.6 mph93%30.09 "Hg2 mi
12:00 PM46 °FLight rain. More clouds than sun.6 mph93%30.12 "Hg5 mi
11:00 AM46 °FLight rain. More clouds than sun.3 mph93%30.12 "Hg4 mi
10:00 AM46 °FLight rain. Fog.6 mph93%30.12 "Hg3 mi
9:00 AM45 °FDrizzle. Fog.1 mph100%30.12 "Hg2 mi
8:00 AM45 °FLight rain. Fog.3 mph93%30.09 "Hg3 mi
Weather by CustomWeather, © 2015

See weather overviewHow to use our weather pages